ASTRA 1N 1 37775U 11041A 21062.85188593 .00000110 00000-0 00000-0 0 9996 2 37775 0.0479 18.2162 0005044 359.8278 109.6256 1.00270930 25161 BSAT-3C (JCSAT-110R) 1 37776U 11041B 21062.86993910 -.00000360 00000-0 00000-0 0 9993 2 37776 0.0589 285.3472 0000658 161.9952 137.6188 1.00271123 31114 ARIANE 5 R/B 1 37777U 11041C 21062.35306016 .00002483 00000-0 93857-3 0 9995 2 37777 2.0614 50.5994 7159994 322.3664 4.5607 2.42480511 82883 ARIANE 5 DEB [SYLDA] 1 37778U 11041D 21062.43166289 .00097865 00000-0 67932-2 0 9993 2 37778 2.5928 61.9920 6120847 297.1780 14.1065 3.90815131112359